Overview Statistics Trail Chart Weather Telemetry Raw packets
 

This is the latest recevied weather packets stored in our database for station/object ES0THZ-13. If no packets are shown the sender has not sent any weather packets the latest 10 day(s).

<< 10 11 12 13 14 15 16 >>
Time Temp. Humidity Pressure Rain* Wind** Luminosity Snow
1788328171 18.89° C 89% 1003.9 hPa - - - -
1788326998 18.89° C 88% 1003.4 hPa - - - -
1788325889 18.33° C 88% 1004.6 hPa - - - -
1788324776 17.78° C 89% 1003.4 hPa - - - -
1788323646 16.11° C 90% 1003.5 hPa - - - -
1788322580 15.56° C 91% 1003.7 hPa - - - -
1788321520 14.44° C 92% 1003.1 hPa - - - -
1788320500 13.89° C 92% 1003.7 hPa - - - -
1788319456 13.89° C 92% 1003.4 hPa - - - -
1788318379 13.33° C 92% 1004.1 hPa - - - -
1788317316 13.33° C 92% 1003.3 hPa - - - -
1788316221 13.33° C 92% 1003.5 hPa - - - -
1788315176 13.33° C 92% 1003.7 hPa - - - -
1788314046 13.89° C 92% 1003.8 hPa - - - -
1788312976 13.33° C 92% 1004.4 hPa - - - -
1788311900 13.89° C 92% 1003.5 hPa - - - -
1788310826 13.33° C 92% 1003.5 hPa - - - -
1788309736 13.89° C 92% 1003.5 hPa - - - -
1788308701 13.89° C 92% 1004 hPa - - - -
1788307560 13.89° C 92% 1003.7 hPa - - - -
1788306566 14.44° C 92% 1003.8 hPa - - - -
1788305440 14.44° C 92% 1003.1 hPa - - - -
1788304340 14.44° C 92% 1003.9 hPa - - - -
1788303196 14.44° C 92% 1004 hPa - - - -
1788302086 15° C 92% 1004.3 hPa - - - -

* Rain since midnight (hover to see other rain measurements)
** Current wind speed in m/s (hover to see current wind gust speed)